Torna al catalogo

THORAD DELTA 1 DEB

AttivoSSO
NORAD 8136·DEBRIS·🇺🇸 United States

Lanciato Nov 15, 1974 da Vandenberg Space Force Base

Loading…

Prossimi Passaggi (prossime 24 ore)

TLE

AggiornatoSource: Space-Track

Epoca: Sep 14, 2026, 22:25 UTC

1 08136U 74089E   26257.93421979 -.00000043  00000-0 -32760-5 0  9994
2 08136 101.0745 245.6721 0073624 232.4336 154.7208 12.64810001117133

Traccia THORAD DELTA 1 DEB in tempo reale con AllMySat

Download on the App Store